Home > Weather > Bordeaux > Past weeks

Flag for France Weather for the Past 2 Weeks in Bordeaux, France

Now
48 °F

Partly sunny.


Feels Like: 42 °F
Forecast: 44 / 55 °F
Wind: 16 mph from Northwest

Location: Bordeaux / Merignac

Current Time: Feb 11, 2016 at 12:17:29 PM

Latest Report: Feb 11, 2016 at 11:30 AM


Visibility: N/A

Pressure: 29.77 "Hg

Humidity: 87%

Dew point: 45 °F

Location of BordeauxLocation

Historic Weather in Bordeaux — Graph

°F

Bordeaux Temperature Yesterday

Maximum temperature yesterday: 46 °F (at 4:00 AM)
Minimum temperature yesterday: 43 °F (at 12:30 AM)
Average temperature yesterday: 45 °F

High & Low Weather Summary for the Past Weeks

 TemperatureHumidityPressure
High61 °F (Feb 5, 4:30 PM)100% (Jan 27, 11:00 AM)30.69 "Hg (Jan 27, 11:00 AM)
Low37 °F (Feb 4, 12:30 AM)48% (Feb 6, 5:00 PM)29.59 "Hg (Feb 9, 11:30 AM)
Average50 °F86%30.21 "Hg
* Reported Jan 27 11:00 AM — Feb 11 11:00 AM, Bordeaux, Weather by CustomWeather, © 2016

Note: Actual official high and low records may vary slightly from our data, if they occured in-between our weather recording intervals... More about our weather records

Advertising

Bordeaux Weather History for the Previous 24 Hours

 ConditionsComfort  
Time TempWeatherWind HumidityBarometerVisibility
11:00 AM
Thu, Feb 11
48 °FPartly sunny.16 mph87%29.77 "HgN/A
10:30 AM50 °FMostly cloudy.18 mph88%29.71 "HgN/A
10:00 AM50 °FPartly sunny.10 mph94%29.71 "HgN/A
9:30 AM48 °FPartly sunny.5 mph100%29.68 "HgN/A
9:00 AM46 °FPartly sunny.6 mph93%29.68 "HgN/A
8:30 AM46 °FLight rain. Mostly cloudy.3 mph93%29.68 "Hg5 mi
8:00 AM45 °FRain. Mostly cloudy.8 mph100%29.68 "Hg4 mi
7:30 AM45 °FLight rain. Low clouds.10 mph100%29.68 "Hg4 mi
7:00 AM45 °FLight rain. Mostly cloudy.12 mph93%29.71 "Hg4 mi
6:30 AM45 °FLight rain. Mostly cloudy.12 mph93%29.71 "Hg4 mi
6:00 AM45 °FRain. Mostly cloudy.10 mph100%29.71 "Hg5 mi
5:30 AM45 °FRain. Mostly cloudy.9 mph93%29.74 "Hg6 mi
5:00 AM45 °FRain. Partly cloudy.6 mph93%29.74 "Hg4 mi
4:30 AM45 °FOvercast.7 mph93%29.77 "HgN/A
4:00 AM43 °FPassing clouds.6 mph100%29.77 "HgN/A
3:30 AM43 °FPartly cloudy.7 mph100%29.80 "HgN/A
3:00 AM43 °FMostly cloudy.7 mph100%29.80 "HgN/A
2:30 AM43 °FMostly cloudy.6 mph100%29.80 "HgN/A
2:00 AM43 °FClear.5 mph100%29.80 "Hg10 mi
1:30 AM43 °FClear.3 mph100%29.80 "Hg6 mi
1:00 AM43 °FClear.3 mph100%29.80 "Hg10 mi
12:30 AM45 °FOvercast.6 mph93%29.80 "HgN/A
12:00 AM45 °FLight rain. Partly cloudy.3 mph93%29.83 "HgN/A
11:30 PM
Wed, Feb 10
45 °FLight rain. Passing clouds.No wind93%29.83 "HgN/A
11:00 PM45 °FPartly cloudy.3 mph87%29.83 "HgN/A
10:30 PM43 °FPassing clouds.2 mph93%29.83 "HgN/A
10:00 PM43 °FMostly cloudy.5 mph93%29.83 "HgN/A
9:30 PM45 °FPassing clouds.6 mph87%29.83 "HgN/A
9:00 PM45 °FPassing clouds.6 mph87%29.83 "HgN/A
8:30 PM45 °FPartly cloudy.6 mph87%29.83 "HgN/A
8:00 PM45 °FPartly cloudy.6 mph87%29.83 "HgN/A
7:30 PM45 °FMostly cloudy.6 mph87%29.83 "HgN/A
7:00 PM45 °FClear.6 mph93%29.83 "Hg10 mi
6:30 PM45 °FMostly cloudy.7 mph93%29.80 "HgN/A
6:00 PM46 °FSunny.7 mph87%29.80 "Hg10 mi
5:30 PM46 °FSunny.8 mph87%29.80 "Hg10 mi
5:00 PM46 °FBroken clouds.8 mph87%29.77 "HgN/A
4:30 PM46 °FMostly cloudy.7 mph82%29.80 "HgN/A
4:00 PM46 °FMostly cloudy.8 mph82%29.77 "HgN/A
3:30 PM46 °FLight rain. Broken clouds.7 mph87%29.77 "HgN/A
3:00 PM46 °FLight rain. Broken clouds.8 mph87%29.77 "HgN/A
2:30 PM46 °FLight rain. Partly sunny.10 mph87%29.77 "HgN/A
2:00 PM45 °FLight rain. Partly sunny.9 mph93%29.77 "HgN/A
1:30 PM45 °FLight rain. Mostly cloudy.7 mph87%29.77 "HgN/A
1:00 PM45 °FLight rain. Mostly cloudy.2 mph87%29.80 "HgN/A
12:30 PM43 °FRain. Mostly cloudy.8 mph93%29.80 "Hg4 mi
12:00 PM45 °FLight rain. Partly sunny.9 mph87%29.77 "HgN/A
Weather by CustomWeather, © 2016

See weather overviewHow to use our weather pages